TimeEDT,TemperatureF,Dew PointF,Humidity,Sea Level PressureIn,VisibilityMPH,Wind Direction,Wind SpeedMPH,Gust SpeedMPH,PrecipitationIn,Events,Conditions,WindDirDegrees,DateUTC
12:54 AM,68.0,50.0,52,29.90,10.0,NNE,12.7,17.3,N/A,,Scattered Clouds,30,2013-09-14 04:54:00
1:54 AM,66.0,50.0,56,29.91,10.0,NNE,9.2,18.4,N/A,,Mostly Cloudy,30,2013-09-14 05:54:00
2:54 AM,63.0,51.1,65,29.92,10.0,NNE,9.2,-,N/A,,Partly Cloudy,30,2013-09-14 06:54:00
3:54 AM,63.0,48.9,60,29.92,10.0,NNE,6.9,-,N/A,,Partly Cloudy,30,2013-09-14 07:54:00
4:54 AM,62.1,46.9,58,29.93,10.0,NNE,8.1,-,N/A,,Scattered Clouds,30,2013-09-14 08:54:00
5:54 AM,60.1,48.0,64,29.95,10.0,NE,5.8,-,N/A,,Partly Cloudy,40,2013-09-14 09:54:00
6:54 AM,59.0,48.0,67,29.98,10.0,NNE,8.1,-,N/A,,Scattered Clouds,30,2013-09-14 10:54:00
7:54 AM,60.1,48.9,67,30.00,10.0,Variable,5.8,-,N/A,,Scattered Clouds,0,2013-09-14 11:54:00
8:54 AM,63.0,50.0,63,30.03,10.0,NNE,6.9,-,N/A,,Clear,30,2013-09-14 12:54:00
9:54 AM,64.0,51.1,63,30.05,10.0,NE,5.8,17.3,N/A,,Mostly Cloudy,50,2013-09-14 13:54:00
10:54 AM,69.1,51.1,53,30.05,10.0,NNE,8.1,-,N/A,,Mostly Cloudy,30,2013-09-14 14:54:00
11:54 AM,72.0,54.0,53,30.05,10.0,NNE,9.2,-,N/A,,Scattered Clouds,20,2013-09-14 15:54:00
12:54 PM,73.9,53.1,48,30.04,10.0,East,8.1,-,N/A,,Clear,80,2013-09-14 16:54:00
1:54 PM,75.9,55.0,48,30.04,10.0,NNE,9.2,-,N/A,,Clear,30,2013-09-14 17:54:00
2:54 PM,78.1,55.9,46,30.02,10.0,Variable,5.8,-,N/A,,Clear,0,2013-09-14 18:54:00
3:54 PM,78.1,55.0,45,30.01,10.0,SE,5.8,-,N/A,,Clear,130,2013-09-14 19:54:00
4:54 PM,79.0,55.9,45,30.01,10.0,Variable,5.8,-,N/A,,Clear,0,2013-09-14 20:54:00
5:54 PM,78.1,55.0,45,30.02,10.0,Variable,5.8,-,N/A,,Clear,0,2013-09-14 21:54:00
6:54 PM,75.9,57.0,52,30.03,10.0,Calm,Calm,-,N/A,,Clear,0,2013-09-14 22:54:00
7:54 PM,71.1,57.0,61,30.06,10.0,NE,4.6,-,N/A,,Clear,50,2013-09-14 23:54:00
8:54 PM,68.0,57.9,70,30.08,10.0,ENE,3.5,-,N/A,,Clear,60,2013-09-15 00:54:00
9:54 PM,62.1,57.9,86,30.10,10.0,Calm,Calm,-,N/A,,Clear,0,2013-09-15 01:54:00
10:54 PM,62.1,57.9,86,30.11,10.0,Calm,Calm,-,N/A,,Clear,0,2013-09-15 02:54:00
11:54 PM,61.0,57.9,90,30.11,10.0,Calm,Calm,-,N/A,,Scattered Clouds,0,2013-09-15 03:54:00